| time (UTC) | temp F | wind direction | speed MPH | gust MPH | rain 1hr in | rain 24hr in | rain mn in | humidity % | barometer mb |
| 20260504004402 | 57 | 267 | 0.0 | 0.0 | 0.00 | 0.00 | 0.00 | 57 | 1016.3 |
| 20260504003904 | 57 | 267 | 0.0 | 0.0 | 0.00 | 0.00 | 0.00 | 56 | 1016.3 |
| 20260504003403 | 58 | 267 | 0.0 | 0.0 | 0.00 | 0.00 | 0.00 | 55 | 1016.3 |
| 20260504002903 | 58 | 267 | 0.0 | 0.0 | 0.00 | 0.00 | 0.00 | 55 | 1016.2 |
| 20260504002404 | 58 | 267 | 0.0 | 0.0 | 0.00 | 0.00 | 0.00 | 55 | 1016.2 |
| 20260504001903 | 59 | 267 | 0.0 | 0.0 | 0.00 | 0.00 | 0.00 | 54 | 1016.2 |
| 20260504001403 | 59 | 267 | 0.0 | 0.0 | 0.00 | 0.00 | 0.00 | 53 | 1016.2 |
| 20260504000904 | 60 | 267 | 0.0 | 0.0 | 0.00 | 0.00 | 0.00 | 53 | 1016.2 |
| 20260504000403 | 60 | 267 | 0.0 | 0.0 | 0.00 | 0.00 | 0.00 | 53 | 1016.2 |
| 20260503235903 | 60 | 267 | 0.0 | 1.0 | 0.00 | 0.00 | 0.00 | 52 | 1016.2 |
| 20260503235404 | 60 | 267 | 0.0 | 1.0 | 0.00 | 0.00 | 0.00 | 51 | 1016.3 |
| 20260503234903 | 60 | 267 | 1.0 | 2.0 | 0.00 | 0.00 | 0.00 | 48 | 1016.3 |
| 20260503234403 | 60 | 267 | 0.0 | 2.0 | 0.00 | 0.00 | 0.00 | 51 | 1016.2 |
| 20260503233904 | 61 | 269 | 0.0 | 2.0 | 0.00 | 0.00 | 0.00 | 47 | 1016.2 |
| 20260503233402 | 61 | 241 | 1.0 | 3.0 | 0.00 | 0.00 | 0.00 | 46 | 1016.2 |
| 20260503232903 | 61 | 249 | 1.0 | 2.0 | 0.00 | 0.00 | 0.00 | 51 | 1016.2 |
| 20260503232404 | 62 | 302 | 0.0 | 2.0 | 0.00 | 0.00 | 0.00 | 50 | 1016.3 |
| 20260503231903 | 63 | 302 | 0.0 | 1.0 | 0.00 | 0.00 | 0.00 | 50 | 1016.3 |
| 20260503231403 | 63 | 313 | 1.0 | 2.0 | 0.00 | 0.00 | 0.00 | 49 | 1016.4 |
| 20260503230905 | 64 | 334 | 2.0 | 3.0 | 0.00 | 0.00 | 0.00 | 41 | 1016.3 |
| 20260503225903 | 65 | 42 | 0.0 | 0.0 | 0.00 | 0.00 | 0.00 | 41 | 1016.4 |
| 20260503225404 | 66 | 42 | 1.0 | 2.0 | 0.00 | 0.00 | 0.00 | 43 | 1016.3 |
| 20260503224903 | 66 | 55 | 1.0 | 3.0 | 0.00 | 0.00 | 0.00 | 43 | 1016.4 |
| 20260503224403 | 67 | 89 | 1.0 | 2.0 | 0.00 | 0.00 | 0.00 | 36 | 1016.4 |
| 20260503223904 | 67 | 32 | 0.0 | 3.0 | 0.00 | 0.00 | 0.00 | 39 | 1016.4 |
| 20260503223403 | 67 | 202 | 0.0 | 3.0 | 0.00 | 0.00 | 0.00 | 34 | 1016.4 |
| 20260503222903 | 67 | 236 | 2.0 | 3.0 | 0.00 | 0.00 | 0.00 | 33 | 1016.4 |
| 20260503222404 | 68 | 182 | 2.0 | 8.0 | 0.00 | 0.00 | 0.00 | 33 | 1016.4 |
| 20260503221403 | 68 | 217 | 2.0 | 5.0 | 0.00 | 0.00 | 0.00 | 34 | 1016.5 |
| 20260503220904 | 68 | 265 | 2.0 | 7.0 | 0.00 | 0.00 | 0.00 | 34 | 1016.5 |
| 20260503220403 | 68 | 209 | 1.0 | 6.0 | 0.00 | 0.00 | 0.00 | 34 | 1016.5 |
| 20260503215903 | 68 | 74 | 1.0 | 3.0 | 0.00 | 0.00 | 0.00 | 33 | 1016.6 |
| 20260503215404 | 69 | 101 | 1.0 | 2.0 | 0.00 | 0.00 | 0.00 | 34 | 1016.8 |
| 20260503214403 | 69 | 189 | 3.0 | 5.0 | 0.00 | 0.00 | 0.00 | 32 | 1016.9 |
| 20260503213403 | 68 | 199 | 3.0 | 7.0 | 0.00 | 0.00 | 0.00 | 34 | 1017.0 |
| 20260503212903 | 68 | 215 | 1.0 | 5.0 | 0.00 | 0.00 | 0.00 | 34 | 1017.2 |
| 20260503211403 | 69 | 174 | 1.0 | 3.0 | 0.00 | 0.00 | 0.00 | 35 | 1017.3 |
| 20260503210905 | 70 | 54 | 1.0 | 3.0 | 0.00 | 0.00 | 0.00 | 33 | 1017.3 |
| 20260503210403 | 69 | 237 | 2.0 | 5.0 | 0.00 | 0.00 | 0.00 | 34 | 1017.3 |
| 20260503205904 | 69 | 177 | 3.0 | 5.0 | 0.00 | 0.00 | 0.00 | 34 | 1017.5 |
| 20260503205405 | 69 | 274 | 2.0 | 5.0 | 0.00 | 0.00 | 0.00 | 34 | 1017.5 |
| 20260503204903 | 69 | 97 | 2.0 | 6.0 | 0.00 | 0.00 | 0.00 | 34 | 1017.5 |
| 20260503204403 | 69 | 300 | 1.0 | 3.0 | 0.00 | 0.00 | 0.00 | 35 | 1017.5 |
| 20260503203904 | 69 | 75 | 2.0 | 6.0 | 0.00 | 0.00 | 0.00 | 35 | 1017.5 |
| 20260503203403 | 68 | 183 | 1.0 | 2.0 | 0.00 | 0.00 | 0.00 | 35 | 1017.6 |
| 20260503202903 | 68 | 5 | 2.0 | 5.0 | 0.00 | 0.00 | 0.00 | 37 | 1018.0 |
| 20260503202404 | 68 | 227 | 3.0 | 7.0 | 0.00 | 0.00 | 0.00 | 34 | 1018.0 |
| 20260503201903 | 68 | 232 | 3.0 | 5.0 | 0.00 | 0.00 | 0.00 | 34 | 1018.0 |
| 20260503201403 | 68 | 278 | 3.0 | 9.0 | 0.00 | 0.00 | 0.00 | 33 | 1018.3 |
| 20260503200904 | 69 | 227 | 3.0 | 8.0 | 0.00 | 0.00 | 0.00 | 34 | 1018.3 |
| 20260503195903 | 68 | 215 | 2.0 | 7.0 | 0.00 | 0.00 | 0.00 | 34 | 1018.6 |
| 20260503195404 | 67 | 200 | 3.0 | 10.0 | 0.00 | 0.00 | 0.00 | 34 | 1018.6 |
| 20260503194903 | 67 | 172 | 4.0 | 7.0 | 0.00 | 0.00 | 0.00 | 34 | 1018.6 |
| 20260503194403 | 67 | 117 | 4.0 | 7.0 | 0.00 | 0.00 | 0.00 | 35 | 1018.8 |
| 20260503193904 | 67 | 235 | 3.0 | 7.0 | 0.00 | 0.00 | 0.00 | 32 | 1018.8 |
| 20260503193403 | 67 | 225 | 4.0 | 8.0 | 0.00 | 0.00 | 0.00 | 33 | 1018.8 |
| 20260503191903 | 67 | 224 | 2.0 | 6.0 | 0.00 | 0.00 | 0.00 | 35 | 1019.2 |
| 20260503191403 | 67 | 73 | 2.0 | 5.0 | 0.00 | 0.00 | 0.00 | 36 | 1019.2 |
| 20260503190904 | 67 | 45 | 2.0 | 5.0 | 0.00 | 0.00 | 0.00 | 38 | 1019.2 |
| 20260503190403 | 67 | 1 | 2.0 | 3.0 | 0.00 | 0.00 | 0.00 | 38 | 1019.2 |
| 20260503184903 | 66 | 226 | 3.0 | 5.0 | 0.00 | 0.00 | 0.00 | 36 | 1019.3 |
| 20260503184403 | 66 | 252 | 2.0 | 8.0 | 0.00 | 0.00 | 0.00 | 38 | 1019.4 |
| 20260503183904 | 65 | 183 | 2.0 | 3.0 | 0.00 | 0.00 | 0.00 | 37 | 1019.4 |
| 20260503183403 | 65 | 250 | 2.0 | 6.0 | 0.00 | 0.00 | 0.00 | 37 | 1019.4 |
| 20260503182903 | 65 | 149 | 2.0 | 5.0 | 0.00 | 0.00 | 0.00 | 36 | 1019.5 |
| 20260503182405 | 66 | 267 | 1.0 | 3.0 | 0.00 | 0.00 | 0.00 | 36 | 1019.5 |
| 20260503181403 | 65 | 50 | 2.0 | 5.0 | 0.00 | 0.00 | 0.00 | 44 | 1019.7 |
| 20260503180905 | 64 | 138 | 5.0 | 9.0 | 0.00 | 0.00 | 0.00 | 37 | 1019.7 |
| 20260503180404 | 65 | 185 | 5.0 | 7.0 | 0.00 | 0.00 | 0.00 | 37 | 1019.7 |
| 20260503175404 | 65 | 131 | 3.0 | 6.0 | 0.00 | 0.00 | 0.00 | 38 | 1020.1 |
| 20260503174903 | 65 | 246 | 2.0 | 7.0 | 0.00 | 0.00 | 0.00 | 39 | 1020.1 |
| 20260503174403 | 64 | 229 | 2.0 | 7.0 | 0.00 | 0.00 | 0.00 | 37 | 1020.1 |
| 20260503173904 | 65 | 50 | 3.0 | 6.0 | 0.00 | 0.00 | 0.00 | 40 | 1020.1 |
| 20260503173404 | 65 | 17 | 2.0 | 3.0 | 0.00 | 0.00 | 0.00 | 41 | 1020.1 |
| 20260503172404 | 64 | 225 | 1.0 | 3.0 | 0.00 | 0.00 | 0.00 | 42 | 1020.4 |
| 20260503171903 | 64 | 101 | 2.0 | 5.0 | 0.00 | 0.00 | 0.00 | 40 | 1020.4 |
| 20260503171404 | 63 | 225 | 3.0 | 7.0 | 0.00 | 0.00 | 0.00 | 40 | 1020.4 |
| 20260503170905 | 64 | 247 | 2.0 | 3.0 | 0.00 | 0.00 | 0.00 | 40 | 1020.4 |
| 20260503170403 | 63 | 54 | 2.0 | 5.0 | 0.00 | 0.00 | 0.00 | 44 | 1020.4 |
| 20260503150905 | 60 | 66 | 3.0 | 3.0 | 0.00 | 0.00 | 0.00 | 49 | 1021.2 |
| 20260503150403 | 60 | 35 | 3.0 | 6.0 | 0.00 | 0.00 | 0.00 | 48 | 1021.2 |
| 20260503131403 | 53 | 49 | 1.0 | 3.0 | 0.00 | 0.00 | 0.00 | 68 | 1020.8 |
| 20260503130905 | 52 | 58 | 1.0 | 3.0 | 0.00 | 0.00 | 0.00 | 70 | 1020.8 |
| 20260503130404 | 51 | 47 | 0.0 | 3.0 | 0.00 | 0.00 | 0.00 | 72 | 1020.8 |
| 20260503110404 | 42 | 181 | 0.0 | 0.0 | 0.00 | 0.00 | 0.00 | 83 | 1019.9 |
| 20260503081405 | 44 | 102 | 0.0 | 1.0 | 0.00 | 0.00 | 0.00 | 80 | 1018.3 |
| 20260503080404 | 44 | 102 | 0.0 | 0.0 | 0.00 | 0.00 | 0.00 | 79 | 1018.3 |
| 20260503072905 | 45 | 102 | 0.0 | 0.0 | 0.00 | 0.00 | 0.00 | 77 | 1018.2 |
| 20260503071905 | 45 | 102 | 0.0 | 0.0 | 0.00 | 0.00 | 0.00 | 77 | 1018.0 |
| 20260503071405 | 45 | 102 | 0.0 | 0.0 | 0.00 | 0.00 | 0.00 | 77 | 1018.0 |
| 20260503070904 | 45 | 102 | 0.0 | 0.0 | 0.00 | 0.00 | 0.00 | 76 | 1018.0 |
| 20260503070404 | 45 | 102 | 0.0 | 0.0 | 0.00 | 0.00 | 0.00 | 75 | 1018.0 |
| 20260503054904 | 47 | 154 | 0.0 | 1.0 | 0.00 | 0.00 | 0.00 | 71 | 1017.7 |
| 20260503054405 | 47 | 154 | 0.0 | 0.0 | 0.00 | 0.00 | 0.00 | 71 | 1017.8 |
| 20260503053904 | 48 | 154 | 0.0 | 1.0 | 0.00 | 0.00 | 0.00 | 70 | 1017.8 |
| 20260503053404 | 48 | 154 | 0.0 | 1.0 | 0.00 | 0.00 | 0.00 | 70 | 1017.8 |
| 20260503052905 | 48 | 154 | 0.0 | 1.0 | 0.00 | 0.00 | 0.00 | 70 | 1017.8 |
| 20260503052404 | 48 | 154 | 0.0 | 1.0 | 0.00 | 0.00 | 0.00 | 69 | 1017.7 |
| 20260503051904 | 49 | 154 | 0.0 | 1.0 | 0.00 | 0.00 | 0.00 | 69 | 1017.6 |
| 20260503051405 | 49 | 154 | 0.0 | 1.0 | 0.00 | 0.00 | 0.00 | 68 | 1017.6 |
| 20260503050904 | 49 | 154 | 0.0 | 1.0 | 0.00 | 0.00 | 0.00 | 67 | 1017.6 |
| 20260503045905 | 50 | 154 | 0.0 | 0.0 | 0.00 | 0.00 | 0.00 | 66 | 1017.5 |
| 20260503045404 | 50 | 154 | 0.0 | 0.0 | 0.00 | 0.00 | 0.00 | 66 | 1017.5 |
| 20260503044403 | 50 | 154 | 0.0 | 0.0 | 0.00 | 0.00 | 0.00 | 65 | 1017.5 |
| 20260503043903 | 51 | 154 | 0.0 | 0.0 | 0.00 | 0.00 | 0.00 | 63 | 1017.5 |
| 20260503043403 | 51 | 154 | 0.0 | 0.0 | 0.00 | 0.00 | 0.00 | 62 | 1017.5 |
| 20260503042903 | 52 | 154 | 0.0 | 0.0 | 0.00 | 0.00 | 0.00 | 61 | 1017.3 |
| 20260503042402 | 52 | 154 | 0.0 | 0.0 | 0.00 | 0.00 | 0.00 | 60 | 1017.3 |
| 20260503041404 | 53 | 154 | 0.0 | 2.0 | 0.00 | 0.00 | 0.00 | 59 | 1017.3 |
| 20260503035904 | 53 | 246 | 1.0 | 3.0 | 0.00 | 0.00 | 0.00 | 57 | 1017.3 |
| 20260503035403 | 53 | 241 | 1.0 | 3.0 | 0.00 | 0.00 | 0.00 | 57 | 1017.3 |
| 20260503034903 | 53 | 128 | 1.0 | 3.0 | 0.00 | 0.00 | 0.00 | 57 | 1017.3 |
| 20260503034404 | 53 | 246 | 1.0 | 3.0 | 0.00 | 0.00 | 0.00 | 56 | 1017.3 |
| 20260503033902 | 54 | 227 | 1.0 | 2.0 | 0.00 | 0.00 | 0.00 | 56 | 1017.3 |
| 20260503033403 | 54 | 255 | 1.0 | 3.0 | 0.00 | 0.00 | 0.00 | 54 | 1017.3 |
| 20260503032903 | 54 | 242 | 0.0 | 3.0 | 0.00 | 0.00 | 0.00 | 54 | 1017.0 |
| 20260503032402 | 55 | 253 | 1.0 | 3.0 | 0.00 | 0.00 | 0.00 | 54 | 1017.0 |
| 20260503031903 | 55 | 279 | 1.0 | 3.0 | 0.00 | 0.00 | 0.00 | 53 | 1017.0 |
| 20260503031404 | 55 | 342 | 2.0 | 3.0 | 0.00 | 0.00 | 0.00 | 51 | 1017.1 |
| 20260503030903 | 55 | 45 | 1.0 | 3.0 | 0.00 | 0.00 | 0.00 | 52 | 1017.1 |
| 20260503030402 | 55 | 31 | 2.0 | 5.0 | 0.00 | 0.00 | 0.00 | 51 | 1017.1 |
| 20260503025904 | 55 | 17 | 1.0 | 2.0 | 0.00 | 0.00 | 0.00 | 53 | 1016.8 |
| 20260503025406 | 56 | 17 | 1.0 | 2.0 | 0.00 | 0.00 | 0.00 | 51 | 1016.8 |
| 20260503024903 | 56 | 342 | 1.0 | 3.0 | 0.00 | 0.00 | 0.00 | 51 | 1016.8 |
| 20260503024404 | 56 | 32 | 1.0 | 3.0 | 0.00 | 0.00 | 0.00 | 51 | 1016.8 |
| 20260503023903 | 55 | 24 | 1.0 | 5.0 | 0.00 | 0.00 | 0.00 | 49 | 1016.6 |
| 20260503023403 | 55 | 331 | 1.0 | 3.0 | 0.00 | 0.00 | 0.00 | 51 | 1016.6 |
| 20260503022903 | 55 | 19 | 1.0 | 2.0 | 0.00 | 0.00 | 0.00 | 52 | 1016.3 |
| 20260503022403 | 56 | 335 | 1.0 | 2.0 | 0.00 | 0.00 | 0.00 | 49 | 1016.3 |
| 20260503021902 | 56 | 324 | 0.0 | 2.0 | 0.00 | 0.00 | 0.00 | 51 | 1016.3 |
| 20260503020903 | 56 | 314 | 1.0 | 2.0 | 0.00 | 0.00 | 0.00 | 52 | 1016.1 |
| 20260503020403 | 56 | 350 | 1.0 | 2.0 | 0.00 | 0.00 | 0.00 | 50 | 1016.1 |
| 20260503015403 | 56 | 278 | 1.0 | 3.0 | 0.00 | 0.00 | 0.00 | 49 | 1015.6 |
| 20260503014902 | 56 | 286 | 1.0 | 3.0 | 0.00 | 0.00 | 0.00 | 50 | 1015.6 |
| 20260503014403 | 56 | 337 | 1.0 | 2.0 | 0.00 | 0.00 | 0.00 | 54 | 1015.6 |
| 20260503013402 | 56 | 312 | 1.0 | 2.0 | 0.00 | 0.00 | 0.00 | 54 | 1015.6 |
| 20260503012403 | 56 | 324 | 1.0 | 2.0 | 0.00 | 0.00 | 0.00 | 53 | 1015.3 |
| 20260503011903 | 56 | 317 | 0.0 | 1.0 | 0.00 | 0.00 | 0.00 | 54 | 1015.3 |
| 20260503011404 | 56 | 323 | 1.0 | 2.0 | 0.00 | 0.00 | 0.00 | 54 | 1015.2 |
| 20260503004903 | 55 | 279 | 0.0 | 0.0 | 0.00 | 0.00 | 0.00 | 54 | 1014.8 |